Time,TemperatureF,DewpointF,PressureIn,WindDirection,WindDirectionDegrees,WindSpeedMPH,WindSpeedGustMPH,Humidity,HourlyPrecipIn,Conditions,Clouds,dailyrainin,SoftwareType,DateUTC
2013-08-10 00:00:00,65.2,58.5,29.98,NNW,345,0.0,0.0,79,0.00,,CLR,0.00,VWS V14.01,2013-08-10 05:00:00,
2013-08-10 00:02:00,65.0,58.7,29.98,NNW,345,0.0,0.0,80,0.00,,FEW070,0.00,VWS V14.01,2013-08-10 05:02:00,
2013-08-10 00:05:00,64.9,58.6,29.98,NNW,345,0.0,0.0,80,0.00,,CLR,0.00,VWS V14.01,2013-08-10 05:05:00,
2013-08-10 00:07:00,64.8,58.5,29.98,NNW,345,0.0,0.0,80,0.00,,FEW070,0.00,VWS V14.01,2013-08-10 05:07:00,
2013-08-10 00:10:00,64.7,58.7,29.98,NNW,344,0.0,0.0,81,0.00,,CLR,0.00,VWS V14.01,2013-08-10 05:10:00,
2013-08-10 00:12:00,64.5,58.5,29.98,NNW,345,0.0,0.0,81,0.00,,FEW070,0.00,VWS V14.01,2013-08-10 05:12:00,
2013-08-10 00:15:00,64.4,58.5,29.98,NNW,345,0.0,0.0,81,0.00,,CLR,0.00,VWS V14.01,2013-08-10 05:15:00,
2013-08-10 00:17:00,64.2,58.6,29.99,NNW,345,0.0,0.0,82,0.00,,FEW070,0.00,VWS V14.01,2013-08-10 05:17:00,
2013-08-10 00:20:00,64.1,58.5,29.98,NNW,344,0.0,0.0,82,0.00,,CLR,0.00,VWS V14.01,2013-08-10 05:20:00,
2013-08-10 00:22:00,64.0,58.4,29.99,NNW,344,0.0,0.0,82,0.00,,FEW070,0.00,VWS V14.01,2013-08-10 05:22:00,
2013-08-10 00:25:00,63.9,58.3,29.99,NNW,345,0.0,0.0,82,0.00,,CLR,0.00,VWS V14.01,2013-08-10 05:25:00,
2013-08-10 00:27:00,63.8,58.5,29.99,NNW,345,0.0,0.0,83,0.00,,FEW070,0.00,VWS V14.01,2013-08-10 05:27:00,
2013-08-10 00:30:00,63.7,58.5,29.99,NNW,344,0.0,0.0,83,0.00,,CLR,0.00,VWS V14.01,2013-08-10 05:30:00,
2013-08-10 00:32:00,63.6,58.7,29.99,NNW,345,0.0,0.0,84,0.00,,FEW070,0.00,VWS V14.01,2013-08-10 05:32:00,
2013-08-10 00:35:00,63.5,58.6,29.99,NNW,345,0.0,0.0,84,0.00,,CLR,0.00,VWS V14.01,2013-08-10 05:35:00,
2013-08-10 00:37:00,63.5,58.6,29.99,NNW,345,0.0,0.0,84,0.00,,FEW070,0.00,VWS V14.01,2013-08-10 05:37:00,
2013-08-10 00:40:00,63.4,58.5,29.99,NNW,345,0.0,0.0,84,0.00,,CLR,0.00,VWS V14.01,2013-08-10 05:40:00,
2013-08-10 00:42:00,63.4,58.5,29.99,NNW,345,0.0,0.0,84,0.00,,FEW070,0.00,VWS V14.01,2013-08-10 05:42:00,
2013-08-10 00:45:00,63.3,58.7,29.99,NNW,345,0.0,0.0,85,0.00,,CLR,0.00,VWS V14.01,2013-08-10 05:45:00,
2013-08-10 00:47:00,63.1,58.5,29.99,NNW,345,0.0,0.0,85,0.00,,FEW070,0.00,VWS V14.01,2013-08-10 05:47:00,
2013-08-10 00:50:00,63.0,58.4,29.99,NNW,345,0.0,0.0,85,0.00,,CLR,0.00,VWS V14.01,2013-08-10 05:50:00,
2013-08-10 00:52:00,62.9,58.3,29.99,NNW,344,0.0,0.0,85,0.00,,FEW070,0.00,VWS V14.01,2013-08-10 05:52:00,
2013-08-10 00:55:00,62.9,58.3,29.99,NNW,345,0.0,1.0,85,0.00,,CLR,0.00,VWS V14.01,2013-08-10 05:55:00,
2013-08-10 00:57:00,62.8,58.6,29.99,NNW,345,0.0,1.0,86,0.00,,FEW070,0.00,VWS V14.01,2013-08-10 05:57:00,
2013-08-10 01:00:00,62.8,58.6,29.99,NNW,345,0.0,0.0,86,0.00,,CLR,0.00,VWS V14.01,2013-08-10 06:00:00,
2013-08-10 01:02:00,62.7,58.5,29.99,NNW,344,0.0,0.0,86,0.00,,FEW080,0.00,VWS V14.01,2013-08-10 06:02:00,
2013-08-10 01:05:00,62.7,58.5,29.99,NNW,345,0.0,0.0,86,0.00,,CLR,0.00,VWS V14.01,2013-08-10 06:05:00,
2013-08-10 01:08:00,62.5,58.3,29.99,NNW,344,0.0,0.0,86,0.00,,FEW080,0.00,VWS V14.01,2013-08-10 06:08:00,
2013-08-10 01:10:00,62.4,58.2,29.99,NNW,344,0.0,0.0,86,0.00,,CLR,0.00,VWS V14.01,2013-08-10 06:10:00,
2013-08-10 01:13:00,62.2,58.3,29.99,NNW,345,0.0,0.0,87,0.00,,FEW080,0.00,VWS V14.01,2013-08-10 06:13:00,
2013-08-10 01:15:00,62.2,58.3,29.99,NNW,345,0.0,0.0,87,0.00,,CLR,0.00,VWS V14.01,2013-08-10 06:15:00,
2013-08-10 01:18:00,62.2,58.3,29.99,NNW,345,0.0,0.0,87,0.00,,FEW080,0.00,VWS V14.01,2013-08-10 06:18:00,
2013-08-10 01:20:00,62.2,58.3,29.99,NNW,344,0.0,0.0,87,0.00,,CLR,0.00,VWS V14.01,2013-08-10 06:20:00,
2013-08-10 01:23:00,62.2,58.3,29.99,NNW,345,0.0,0.0,87,0.00,,FEW080,0.00,VWS V14.01,2013-08-10 06:23:00,
2013-08-10 01:25:00,62.2,58.3,30.00,NNW,345,0.0,0.0,87,0.00,,CLR,0.00,VWS V14.01,2013-08-10 06:25:00,
2013-08-10 01:28:00,62.2,58.3,30.00,NNW,345,0.0,0.0,87,0.00,,FEW080,0.00,VWS V14.01,2013-08-10 06:28:00,
2013-08-10 01:30:00,62.1,58.2,30.00,NNW,345,0.0,0.0,87,0.00,,CLR,0.00,VWS V14.01,2013-08-10 06:30:00,
2013-08-10 01:33:00,62.1,58.2,29.99,NNW,345,0.0,0.0,87,0.00,,FEW080,0.00,VWS V14.01,2013-08-10 06:33:00,
2013-08-10 01:35:00,62.0,58.1,29.99,NNW,345,0.0,0.0,87,0.00,,CLR,0.00,VWS V14.01,2013-08-10 06:35:00,
2013-08-10 01:38:00,61.9,58.0,30.00,NNW,344,0.0,0.0,87,0.00,,FEW080,0.00,VWS V14.01,2013-08-10 06:38:00,
2013-08-10 01:40:00,61.9,58.0,30.00,NNW,345,0.0,0.0,87,0.00,,CLR,0.00,VWS V14.01,2013-08-10 06:40:00,
2013-08-10 01:43:00,61.8,57.9,30.00,NNW,345,0.0,0.0,87,0.00,,FEW080,0.00,VWS V14.01,2013-08-10 06:43:00,
2013-08-10 01:45:00,61.8,57.9,30.00,NNW,344,0.0,0.0,87,0.00,,CLR,0.00,VWS V14.01,2013-08-10 06:45:00,
2013-08-10 01:48:00,61.7,57.8,30.00,NNW,344,0.0,1.0,87,0.00,,FEW080,0.00,VWS V14.01,2013-08-10 06:48:00,
2013-08-10 01:50:00,61.6,57.7,30.00,NNW,345,0.0,1.0,87,0.00,,CLR,0.00,VWS V14.01,2013-08-10 06:50:00,
2013-08-10 01:53:00,61.5,57.9,30.00,NNW,344,0.0,0.0,88,0.00,,FEW080,0.00,VWS V14.01,2013-08-10 06:53:00,
2013-08-10 01:55:00,61.4,57.8,30.00,NNW,345,0.0,0.0,88,0.00,,CLR,0.00,VWS V14.01,2013-08-10 06:55:00,
2013-08-10 01:58:00,61.3,57.7,30.00,NNW,345,0.0,0.0,88,0.00,,FEW080,0.00,VWS V14.01,2013-08-10 06:58:00,
2013-08-10 02:00:00,61.2,57.6,30.00,NNW,344,0.0,0.0,88,0.00,,CLR,0.00,VWS V14.01,2013-08-10 07:00:00,
2013-08-10 02:03:00,61.1,57.5,30.00,NNW,345,0.0,0.0,88,0.00,,FEW080,0.00,VWS V14.01,2013-08-10 07:03:00,
2013-08-10 02:05:00,61.1,57.5,30.00,NNW,344,0.0,0.0,88,0.00,,CLR,0.00,VWS V14.01,2013-08-10 07:05:00,
2013-08-10 02:08:00,60.9,57.6,30.00,NNW,344,0.0,0.0,89,0.00,,FEW080,0.00,VWS V14.01,2013-08-10 07:08:00,
2013-08-10 02:10:00,60.9,57.6,30.00,NNW,345,0.0,0.0,89,0.00,,CLR,0.00,VWS V14.01,2013-08-10 07:10:00,
2013-08-10 02:13:00,60.9,57.6,30.00,NNW,344,0.0,0.0,89,0.00,,FEW080,0.00,VWS V14.01,2013-08-10 07:13:00,
2013-08-10 02:15:00,60.9,57.6,30.00,NNW,345,0.0,0.0,89,0.00,,CLR,0.00,VWS V14.01,2013-08-10 07:15:00,
2013-08-10 02:18:00,60.9,57.6,30.00,NNW,345,0.0,1.0,89,0.00,,FEW080,0.00,VWS V14.01,2013-08-10 07:18:00,
2013-08-10 02:20:00,60.9,57.6,30.00,NNW,344,0.0,0.0,89,0.00,,CLR,0.00,VWS V14.01,2013-08-10 07:20:00,
2013-08-10 02:23:00,60.9,57.6,30.00,NNW,344,0.0,0.0,89,0.00,,FEW080,0.00,VWS V14.01,2013-08-10 07:23:00,
2013-08-10 02:25:00,60.9,57.6,30.00,NNW,345,0.0,0.0,89,0.00,,CLR,0.00,VWS V14.01,2013-08-10 07:25:00,
2013-08-10 02:28:00,60.9,57.6,30.00,NNW,345,0.0,0.0,89,0.00,,FEW080,0.00,VWS V14.01,2013-08-10 07:28:00,
2013-08-10 02:30:00,60.8,57.5,30.00,NNW,344,0.0,0.0,89,0.00,,CLR,0.00,VWS V14.01,2013-08-10 07:30:00,
2013-08-10 02:33:00,60.8,57.5,30.00,NNW,345,0.0,0.0,89,0.00,,FEW080,0.00,VWS V14.01,2013-08-10 07:33:00,
2013-08-10 02:35:00,60.8,57.5,30.00,NNW,345,0.0,0.0,89,0.00,,CLR,0.00,VWS V14.01,2013-08-10 07:35:00,
2013-08-10 02:39:00,60.8,57.5,30.01,NNW,345,0.0,1.0,89,0.00,,FEW080,0.00,VWS V14.01,2013-08-10 07:39:00,
2013-08-10 02:40:00,60.8,57.5,30.01,NNW,344,0.0,1.0,89,0.00,,CLR,0.00,VWS V14.01,2013-08-10 07:40:00,
2013-08-10 02:44:00,60.5,56.9,30.01,NNW,344,0.0,0.0,88,0.00,,FEW080,0.00,VWS V14.01,2013-08-10 07:44:00,
2013-08-10 02:45:00,60.5,56.9,30.01,NNW,344,0.0,0.0,88,0.00,,CLR,0.00,VWS V14.01,2013-08-10 07:45:00,
2013-08-10 02:49:00,60.2,57.0,30.01,NNW,345,0.0,0.0,89,0.00,,FEW080,0.00,VWS V14.01,2013-08-10 07:49:00,
2013-08-10 02:50:00,60.1,56.8,30.01,NNW,345,0.0,0.0,89,0.00,,CLR,0.00,VWS V14.01,2013-08-10 07:50:00,
2013-08-10 02:54:00,59.8,56.9,30.01,NNW,344,0.0,0.0,90,0.00,,FEW080,0.00,VWS V14.01,2013-08-10 07:54:00,
2013-08-10 02:55:00,59.8,56.9,30.01,NNW,345,0.0,0.0,90,0.00,,CLR,0.00,VWS V14.01,2013-08-10 07:55:00,
2013-08-10 02:59:00,59.6,56.7,30.01,NNW,344,0.0,0.0,90,0.00,,FEW080,0.00,VWS V14.01,2013-08-10 07:59:00,
2013-08-10 03:00:00,59.6,56.7,30.01,NNW,345,0.0,0.0,90,0.00,,CLR,0.00,VWS V14.01,2013-08-10 08:00:00,
2013-08-10 03:04:00,59.5,56.9,30.01,NNW,344,0.0,0.0,91,0.00,,FEW060,0.00,VWS V14.01,2013-08-10 08:04:00,
2013-08-10 03:05:00,59.5,56.9,30.01,NNW,345,0.0,0.0,91,0.00,,CLR,0.00,VWS V14.01,2013-08-10 08:05:00,
2013-08-10 03:09:00,59.6,57.0,30.01,NW,323,0.0,1.0,91,0.00,,FEW060,0.00,VWS V14.01,2013-08-10 08:09:00,
2013-08-10 03:10:00,59.6,57.0,30.01,NW,323,0.0,1.0,91,0.00,,CLR,0.00,VWS V14.01,2013-08-10 08:10:00,
2013-08-10 03:14:00,59.6,57.0,30.01,NW,323,0.0,0.0,91,0.00,,FEW060,0.00,VWS V14.01,2013-08-10 08:14:00,
2013-08-10 03:15:00,59.6,57.0,30.01,NW,323,0.0,0.0,91,0.00,,CLR,0.00,VWS V14.01,2013-08-10 08:15:00,
2013-08-10 03:19:00,59.6,57.0,30.01,NW,323,2.0,3.0,91,0.00,,FEW060,0.00,VWS V14.01,2013-08-10 08:19:00,
2013-08-10 03:20:00,59.6,57.0,30.01,NW,323,2.0,3.0,91,0.00,,CLR,0.00,VWS V14.01,2013-08-10 08:20:00,
2013-08-10 03:24:00,59.6,56.7,30.01,NW,323,0.0,1.0,90,0.00,,FEW060,0.00,VWS V14.01,2013-08-10 08:24:00,
2013-08-10 03:25:00,59.6,56.7,30.01,NW,323,0.0,1.0,90,0.00,,CLR,0.00,VWS V14.01,2013-08-10 08:25:00,
2013-08-10 03:29:00,59.5,56.9,30.01,NW,323,0.0,0.0,91,0.00,,FEW060,0.00,VWS V14.01,2013-08-10 08:29:00,
2013-08-10 03:30:00,59.5,56.9,30.01,NW,323,0.0,0.0,91,0.00,,CLR,0.00,VWS V14.01,2013-08-10 08:30:00,
2013-08-10 03:34:00,59.6,56.7,30.01,NW,323,0.0,3.0,90,0.00,,FEW060,0.00,VWS V14.01,2013-08-10 08:34:00,
2013-08-10 03:35:00,59.6,56.7,30.01,NW,323,0.0,3.0,90,0.00,,CLR,0.00,VWS V14.01,2013-08-10 08:35:00,
2013-08-10 03:39:00,59.5,56.6,30.01,NW,323,0.0,0.0,90,0.00,,FEW060,0.00,VWS V14.01,2013-08-10 08:39:00,
2013-08-10 03:40:00,59.5,56.6,30.01,NW,323,0.0,0.0,90,0.00,,CLR,0.00,VWS V14.01,2013-08-10 08:40:00,
2013-08-10 03:44:00,59.3,56.4,30.01,NW,323,0.0,0.0,90,0.00,,FEW060,0.00,VWS V14.01,2013-08-10 08:44:00,
2013-08-10 03:45:00,59.3,56.4,30.01,NW,323,0.0,0.0,90,0.00,,CLR,0.00,VWS V14.01,2013-08-10 08:45:00,
2013-08-10 03:49:00,59.2,56.6,30.01,NW,323,0.0,0.0,91,0.00,,FEW060,0.00,VWS V14.01,2013-08-10 08:49:00,
2013-08-10 03:50:00,59.2,56.6,30.01,NW,323,0.0,0.0,91,0.00,,CLR,0.00,VWS V14.01,2013-08-10 08:50:00,
2013-08-10 03:54:00,59.3,56.7,30.01,NW,323,0.0,3.0,91,0.00,,FEW060,0.00,VWS V14.01,2013-08-10 08:54:00,
2013-08-10 03:55:00,59.3,56.7,30.01,NW,323,0.0,3.0,91,0.00,,CLR,0.00,VWS V14.01,2013-08-10 08:55:00,
2013-08-10 03:59:00,59.4,56.8,30.01,NW,323,0.0,0.0,91,0.00,,FEW060,0.00,VWS V14.01,2013-08-10 08:59:00,
2013-08-10 04:00:00,59.4,56.8,30.01,NW,323,0.0,0.0,91,0.00,,CLR,0.00,VWS V14.01,2013-08-10 09:00:00,
2013-08-10 04:04:00,59.2,56.6,30.01,NW,323,0.0,1.0,91,0.00,,FEW060,0.00,VWS V14.01,2013-08-10 09:04:00,
2013-08-10 04:05:00,59.2,56.6,30.01,NW,323,0.0,1.0,91,0.00,,CLR,0.00,VWS V14.01,2013-08-10 09:05:00,
2013-08-10 04:09:00,58.7,56.1,30.02,NW,323,0.0,1.0,91,0.00,,FEW060,0.00,VWS V14.01,2013-08-10 09:09:00,
2013-08-10 04:10:00,58.7,56.1,30.02,NW,323,0.0,1.0,91,0.00,,CLR,0.00,VWS V14.01,2013-08-10 09:10:00,
2013-08-10 04:14:00,58.5,55.9,30.02,WNW,293,0.0,0.0,91,0.00,,FEW060,0.00,VWS V14.01,2013-08-10 09:14:00,
2013-08-10 04:15:00,58.5,55.9,30.02,WNW,293,0.0,0.0,91,0.00,,CLR,0.00,VWS V14.01,2013-08-10 09:15:00,
2013-08-10 04:19:00,58.3,56.0,30.01,WNW,303,0.0,1.0,92,0.00,,FEW060,0.00,VWS V14.01,2013-08-10 09:19:00,
2013-08-10 04:20:00,58.3,56.0,30.01,WNW,303,0.0,1.0,92,0.00,,CLR,0.00,VWS V14.01,2013-08-10 09:20:00,
2013-08-10 04:24:00,58.3,56.0,30.01,NW,313,0.0,0.0,92,0.00,,FEW060,0.00,VWS V14.01,2013-08-10 09:24:00,
2013-08-10 04:25:00,58.3,56.0,30.01,NW,313,0.0,0.0,92,0.00,,CLR,0.00,VWS V14.01,2013-08-10 09:25:00,
2013-08-10 04:29:00,58.3,56.0,30.01,NW,313,0.0,0.0,92,0.00,,FEW060,0.00,VWS V14.01,2013-08-10 09:29:00,
2013-08-10 04:30:00,58.3,56.0,30.01,NW,313,0.0,0.0,92,0.00,,CLR,0.00,VWS V14.01,2013-08-10 09:30:00,
2013-08-10 04:34:00,58.3,56.0,30.01,NW,313,0.0,0.0,92,0.00,,FEW060,0.00,VWS V14.01,2013-08-10 09:34:00,
2013-08-10 04:35:00,58.3,56.0,30.01,NW,313,0.0,0.0,92,0.00,,CLR,0.00,VWS V14.01,2013-08-10 09:35:00,
2013-08-10 04:39:00,58.2,55.9,30.02,NW,317,0.0,1.0,92,0.00,,FEW060,0.00,VWS V14.01,2013-08-10 09:39:00,
2013-08-10 04:40:00,58.2,55.9,30.02,NW,317,0.0,1.0,92,0.00,,CLR,0.00,VWS V14.01,2013-08-10 09:40:00,
2013-08-10 04:44:00,58.2,55.9,30.02,NW,318,0.0,0.0,92,0.00,,FEW060,0.00,VWS V14.01,2013-08-10 09:44:00,
2013-08-10 04:45:00,58.2,55.9,30.02,NW,318,0.0,0.0,92,0.00,,CLR,0.00,VWS V14.01,2013-08-10 09:45:00,
2013-08-10 04:49:00,58.1,55.8,30.02,NW,317,0.0,0.0,92,0.00,,FEW060,0.00,VWS V14.01,2013-08-10 09:49:00,
2013-08-10 04:50:00,58.1,55.8,30.02,NW,317,0.0,0.0,92,0.00,,CLR,0.00,VWS V14.01,2013-08-10 09:50:00,
2013-08-10 04:54:00,57.9,55.6,30.02,NW,309,0.0,2.0,92,0.00,,FEW060,0.00,VWS V14.01,2013-08-10 09:54:00,
2013-08-10 04:55:00,57.9,55.6,30.02,NW,309,0.0,2.0,92,0.00,,CLR,0.00,VWS V14.01,2013-08-10 09:55:00,
2013-08-10 04:59:00,57.8,55.5,30.02,NW,325,1.0,3.0,92,0.00,,FEW060,0.00,VWS V14.01,2013-08-10 09:59:00,
2013-08-10 05:00:00,57.8,55.5,30.02,NW,325,1.0,3.0,92,0.00,,CLR,0.00,VWS V14.01,2013-08-10 10:00:00,
2013-08-10 05:04:00,57.8,55.8,30.02,NW,320,0.0,5.0,93,0.00,,FEW060,0.00,VWS V14.01,2013-08-10 10:04:00,
2013-08-10 05:05:00,57.8,55.8,30.02,NW,320,0.0,5.0,93,0.00,,CLR,0.00,VWS V14.01,2013-08-10 10:05:00,
2013-08-10 05:09:00,57.7,55.7,30.02,NW,315,0.0,1.0,93,0.00,,FEW060,0.00,VWS V14.01,2013-08-10 10:09:00,
2013-08-10 05:10:00,57.7,55.7,30.02,NW,315,0.0,1.0,93,0.00,,CLR,0.00,VWS V14.01,2013-08-10 10:10:00,
2013-08-10 05:14:00,57.6,55.6,30.03,NW,315,0.0,0.0,93,0.00,,FEW060,0.00,VWS V14.01,2013-08-10 10:14:00,
2013-08-10 05:15:00,57.6,55.6,30.03,NW,315,0.0,0.0,93,0.00,,CLR,0.00,VWS V14.01,2013-08-10 10:15:00,
2013-08-10 05:19:00,57.5,55.2,30.03,NW,315,0.0,0.0,92,0.00,,FEW060,0.00,VWS V14.01,2013-08-10 10:19:00,
2013-08-10 05:20:00,57.5,55.2,30.03,NW,315,0.0,0.0,92,0.00,,CLR,0.00,VWS V14.01,2013-08-10 10:20:00,
2013-08-10 05:24:00,57.3,55.3,30.03,WNW,302,0.0,0.0,93,0.00,,FEW060,0.00,VWS V14.01,2013-08-10 10:24:00,
2013-08-10 05:25:00,57.3,55.3,30.03,WNW,302,0.0,0.0,93,0.00,,CLR,0.00,VWS V14.01,2013-08-10 10:25:00,
2013-08-10 05:29:00,57.3,55.3,30.03,WNW,302,0.0,0.0,93,0.00,,FEW060,0.00,VWS V14.01,2013-08-10 10:29:00,
2013-08-10 05:30:00,57.3,55.3,30.03,WNW,302,0.0,0.0,93,0.00,,CLR,0.00,VWS V14.01,2013-08-10 10:30:00,
2013-08-10 05:34:00,57.3,55.3,30.03,WNW,302,0.0,0.0,93,0.00,,FEW060,0.00,VWS V14.01,2013-08-10 10:34:00,
2013-08-10 05:35:00,57.3,55.3,30.03,WNW,302,0.0,0.0,93,0.00,,CLR,0.00,VWS V14.01,2013-08-10 10:35:00,
2013-08-10 05:39:00,57.4,55.7,30.03,WNW,302,0.0,0.0,94,0.00,,FEW060,0.00,VWS V14.01,2013-08-10 10:39:00,
2013-08-10 05:40:00,57.4,55.7,30.03,WNW,302,0.0,0.0,94,0.00,,CLR,0.00,VWS V14.01,2013-08-10 10:40:00,
2013-08-10 05:44:00,57.3,55.3,30.03,WNW,302,0.0,0.0,93,0.00,,FEW060,0.00,VWS V14.01,2013-08-10 10:44:00,
2013-08-10 05:45:00,57.3,55.3,30.03,WNW,302,0.0,0.0,93,0.00,,CLR,0.00,VWS V14.01,2013-08-10 10:45:00,
2013-08-10 05:50:00,57.5,55.8,30.03,WNW,302,0.0,0.0,94,0.00,,FEW060,0.00,VWS V14.01,2013-08-10 10:50:00,
2013-08-10 05:55:00,57.5,55.8,30.03,WNW,302,0.0,1.0,94,0.00,,FEW060,0.00,VWS V14.01,2013-08-10 10:55:00,
2013-08-10 06:00:00,57.4,55.7,30.03,WNW,302,0.0,0.0,94,0.00,,FEW060,0.00,VWS V14.01,2013-08-10 11:00:00,
2013-08-10 06:05:00,57.3,55.6,30.04,WNW,302,0.0,0.0,94,0.00,,FEW080,0.00,VWS V14.01,2013-08-10 11:05:00,
2013-08-10 06:10:00,57.4,55.7,30.04,WNW,302,0.0,0.0,94,0.00,,FEW080,0.00,VWS V14.01,2013-08-10 11:10:00,
2013-08-10 06:15:00,57.5,55.8,30.04,WNW,302,0.0,0.0,94,0.00,,FEW080,0.00,VWS V14.01,2013-08-10 11:15:00,
2013-08-10 06:20:00,57.6,55.9,30.04,WNW,302,0.0,0.0,94,0.00,,FEW080,0.00,VWS V14.01,2013-08-10 11:20:00,
2013-08-10 06:25:00,57.8,56.1,30.04,WNW,302,0.0,0.0,94,0.00,,FEW080,0.00,VWS V14.01,2013-08-10 11:25:00,
2013-08-10 06:30:00,58.0,56.3,30.04,WNW,302,0.0,0.0,94,0.00,,FEW080,0.00,VWS V14.01,2013-08-10 11:30:00,
2013-08-10 06:35:00,58.2,56.2,30.04,WNW,302,0.0,0.0,93,0.00,,FEW080,0.00,VWS V14.01,2013-08-10 11:35:00,
2013-08-10 06:40:00,58.3,56.3,30.04,WNW,302,0.0,1.0,93,0.00,,CLR,0.00,VWS V14.01,2013-08-10 11:40:00,
2013-08-10 06:41:00,58.4,56.4,30.04,WNW,302,0.0,1.0,93,0.00,,FEW080,0.00,VWS V14.01,2013-08-10 11:41:00,
2013-08-10 06:45:00,58.4,56.4,30.04,WNW,302,0.0,0.0,93,0.00,,CLR,0.00,VWS V14.01,2013-08-10 11:45:00,
2013-08-10 06:46:00,58.5,56.5,30.04,WNW,302,0.0,0.0,93,0.00,,FEW080,0.00,VWS V14.01,2013-08-10 11:46:00,
2013-08-10 06:50:00,58.6,56.6,30.04,WNW,302,0.0,0.0,93,0.00,,CLR,0.00,VWS V14.01,2013-08-10 11:50:00,
2013-08-10 06:51:00,58.6,56.6,30.04,WNW,302,0.0,0.0,93,0.00,,FEW080,0.00,VWS V14.01,2013-08-10 11:51:00,
2013-08-10 06:55:00,58.7,56.7,30.04,WNW,302,0.0,0.0,93,0.00,,CLR,0.00,VWS V14.01,2013-08-10 11:55:00,
2013-08-10 06:56:00,58.8,56.8,30.04,WNW,302,0.0,0.0,93,0.00,,FEW080,0.00,VWS V14.01,2013-08-10 11:56:00,
2013-08-10 07:00:00,58.9,56.6,30.04,WNW,302,0.0,0.0,92,0.00,,CLR,0.00,VWS V14.01,2013-08-10 12:00:00,
2013-08-10 07:01:00,59.0,56.7,30.04,WNW,302,0.0,0.0,92,0.00,,FEW100,0.00,VWS V14.01,2013-08-10 12:01:00,
2013-08-10 07:05:00,59.2,57.2,30.04,WNW,302,0.0,0.0,93,0.00,,CLR,0.00,VWS V14.01,2013-08-10 12:05:00,
2013-08-10 07:06:00,59.3,57.0,30.04,WNW,302,0.0,0.0,92,0.00,,FEW100,0.00,VWS V14.01,2013-08-10 12:06:00,
2013-08-10 07:10:00,59.5,57.2,30.04,WNW,302,0.0,0.0,92,0.00,,CLR,0.00,VWS V14.01,2013-08-10 12:10:00,
2013-08-10 07:11:00,59.6,57.3,30.04,WNW,302,0.0,0.0,92,0.00,,FEW100,0.00,VWS V14.01,2013-08-10 12:11:00,
2013-08-10 07:15:00,59.9,57.6,30.04,WNW,302,0.0,0.0,92,0.00,,CLR,0.00,VWS V14.01,2013-08-10 12:15:00,
2013-08-10 07:16:00,60.1,57.8,30.04,WNW,302,0.0,1.0,92,0.00,,FEW100,0.00,VWS V14.01,2013-08-10 12:16:00,
2013-08-10 07:20:00,60.4,58.1,30.04,NW,319,0.0,4.0,92,0.00,,CLR,0.00,VWS V14.01,2013-08-10 12:20:00,
2013-08-10 07:21:00,60.6,58.0,30.04,NW,319,0.0,4.0,91,0.00,,FEW100,0.00,VWS V14.01,2013-08-10 12:21:00,
2013-08-10 07:25:00,60.9,58.3,30.04,NW,319,0.0,0.0,91,0.00,,CLR,0.00,VWS V14.01,2013-08-10 12:25:00,
2013-08-10 07:26:00,61.1,58.5,30.04,NW,319,0.0,1.0,91,0.00,,FEW100,0.00,VWS V14.01,2013-08-10 12:26:00,
2013-08-10 07:30:00,61.4,58.5,30.04,NW,319,0.0,1.0,90,0.00,,CLR,0.00,VWS V14.01,2013-08-10 12:30:00,
2013-08-10 07:31:00,61.6,58.6,30.04,NW,319,0.0,0.0,90,0.00,,FEW100,0.00,VWS V14.01,2013-08-10 12:31:00,
2013-08-10 07:35:00,61.9,58.9,30.04,NW,319,0.0,0.0,90,0.00,,CLR,0.00,VWS V14.01,2013-08-10 12:35:00,
2013-08-10 07:36:00,62.1,58.8,30.04,NW,319,0.0,0.0,89,0.00,,FEW100,0.00,VWS V14.01,2013-08-10 12:36:00,
2013-08-10 07:40:00,62.5,59.2,30.04,NW,319,0.0,0.0,89,0.00,,CLR,0.00,VWS V14.01,2013-08-10 12:40:00,
2013-08-10 07:41:00,62.7,59.1,30.04,NW,319,0.0,0.0,88,0.00,,FEW100,0.00,VWS V14.01,2013-08-10 12:41:00,
2013-08-10 07:45:00,63.0,59.4,30.04,NW,319,0.0,0.0,88,0.00,,CLR,0.00,VWS V14.01,2013-08-10 12:45:00,
2013-08-10 07:46:00,63.3,59.7,30.04,NW,319,0.0,0.0,88,0.00,,FEW100,0.00,VWS V14.01,2013-08-10 12:46:00,
2013-08-10 07:50:00,63.6,59.7,30.04,NW,319,0.0,0.0,87,0.00,,CLR,0.00,VWS V14.01,2013-08-10 12:50:00,
2013-08-10 07:51:00,63.9,60.0,30.04,NW,319,0.0,0.0,87,0.00,,FEW100,0.00,VWS V14.01,2013-08-10 12:51:00,
2013-08-10 07:55:00,64.4,60.5,30.04,NW,319,0.0,0.0,87,0.00,,CLR,0.00,VWS V14.01,2013-08-10 12:55:00,
2013-08-10 07:56:00,64.7,60.8,30.04,NW,319,0.0,0.0,87,0.00,,FEW100,0.00,VWS V14.01,2013-08-10 12:56:00,
2013-08-10 08:00:00,65.2,61.2,30.05,NW,319,0.0,0.0,87,0.00,,CLR,0.00,VWS V14.01,2013-08-10 13:00:00,
2013-08-10 08:01:00,65.7,61.4,30.05,NW,319,0.0,0.0,86,0.00,,FEW100,0.00,VWS V14.01,2013-08-10 13:01:00,
2013-08-10 08:05:00,66.2,61.6,30.05,NW,319,0.0,0.0,85,0.00,,CLR,0.00,VWS V14.01,2013-08-10 13:05:00,
2013-08-10 08:07:00,66.7,61.7,30.05,NW,319,0.0,0.0,84,0.00,,FEW100,0.00,VWS V14.01,2013-08-10 13:07:00,
2013-08-10 08:10:00,67.1,61.8,30.05,NW,319,0.0,0.0,83,0.00,,CLR,0.00,VWS V14.01,2013-08-10 13:10:00,
2013-08-10 08:12:00,67.4,61.4,30.05,NW,319,0.0,0.0,81,0.00,,FEW100,0.00,VWS V14.01,2013-08-10 13:12:00,
2013-08-10 08:15:00,67.7,62.0,30.05,NW,319,0.0,0.0,82,0.00,,CLR,0.00,VWS V14.01,2013-08-10 13:15:00,
2013-08-10 08:17:00,68.2,62.2,30.04,NW,319,0.0,0.0,81,0.00,,FEW100,0.00,VWS V14.01,2013-08-10 13:17:00,
2013-08-10 08:20:00,68.5,62.1,30.04,NW,319,0.0,0.0,80,0.00,,CLR,0.00,VWS V14.01,2013-08-10 13:20:00,
2013-08-10 08:22:00,68.9,62.5,30.05,NW,319,0.0,0.0,80,0.00,,FEW100,0.00,VWS V14.01,2013-08-10 13:22:00,
2013-08-10 08:25:00,69.4,62.6,30.04,NW,319,0.0,0.0,79,0.00,,CLR,0.00,VWS V14.01,2013-08-10 13:25:00,
2013-08-10 08:27:00,69.8,61.9,30.04,ENE,72,3.0,5.0,76,0.00,,FEW100,0.00,VWS V14.01,2013-08-10 13:27:00,
2013-08-10 08:30:00,69.9,61.2,30.04,North,5,0.0,5.0,74,0.00,,CLR,0.00,VWS V14.01,2013-08-10 13:30:00,
2013-08-10 08:32:00,70.0,61.3,30.05,NNE,28,0.0,4.0,74,0.00,,FEW100,0.00,VWS V14.01,2013-08-10 13:32:00,
2013-08-10 08:35:00,70.1,61.4,30.05,NNE,17,0.0,1.0,74,0.00,,CLR,0.00,VWS V14.01,2013-08-10 13:35:00,
2013-08-10 08:37:00,70.3,61.6,30.05,NNE,22,0.0,0.0,74,0.00,,FEW100,0.00,VWS V14.01,2013-08-10 13:37:00,
2013-08-10 08:40:00,70.4,61.3,30.05,NNE,23,0.0,3.0,73,0.00,,CLR,0.00,VWS V14.01,2013-08-10 13:40:00,
2013-08-10 08:42:00,70.5,61.4,30.05,NE,34,1.0,4.0,73,0.00,,FEW100,0.00,VWS V14.01,2013-08-10 13:42:00,
2013-08-10 08:45:00,70.4,61.3,30.05,NNE,30,0.0,1.0,73,0.00,,CLR,0.00,VWS V14.01,2013-08-10 13:45:00,
2013-08-10 08:47:00,70.4,61.3,30.05,North,5,0.0,1.0,73,0.00,,FEW100,0.00,VWS V14.01,2013-08-10 13:47:00,
2013-08-10 08:50:00,70.5,61.4,30.05,NNE,28,0.0,4.0,73,0.00,,CLR,0.00,VWS V14.01,2013-08-10 13:50:00,
2013-08-10 08:52:00,70.6,61.5,30.05,NE,36,0.0,4.0,73,0.00,,FEW100,0.00,VWS V14.01,2013-08-10 13:52:00,
2013-08-10 08:55:00,70.6,61.5,30.05,NNE,16,0.0,1.0,73,0.00,,CLR,0.00,VWS V14.01,2013-08-10 13:55:00,
2013-08-10 08:57:00,70.6,61.5,30.05,NE,52,0.0,1.0,73,0.00,,FEW100,0.00,VWS V14.01,2013-08-10 13:57:00,
2013-08-10 09:00:00,70.5,61.0,30.05,NNE,20,0.0,5.0,72,0.00,,CLR,0.00,VWS V14.01,2013-08-10 14:00:00,
2013-08-10 09:02:00,70.3,60.9,30.05,NNE,19,0.0,5.0,72,0.00,,CLR,0.00,VWS V14.01,2013-08-10 14:02:00,
2013-08-10 09:05:00,70.1,61.0,30.05,NE,49,0.0,5.0,73,0.00,,CLR,0.00,VWS V14.01,2013-08-10 14:05:00,
2013-08-10 09:07:00,70.1,61.0,30.05,NE,36,0.0,1.0,73,0.00,,CLR,0.00,VWS V14.01,2013-08-10 14:07:00,
2013-08-10 09:10:00,70.1,61.0,30.05,NE,48,0.0,1.0,73,0.00,,CLR,0.00,VWS V14.01,2013-08-10 14:10:00,
2013-08-10 09:12:00,70.1,60.7,30.05,NNE,22,0.0,4.0,72,0.00,,CLR,0.00,VWS V14.01,2013-08-10 14:12:00,
2013-08-10 09:15:00,70.0,60.6,30.05,ENE,66,0.0,4.0,72,0.00,,CLR,0.00,VWS V14.01,2013-08-10 14:15:00,
2013-08-10 09:17:00,70.1,60.3,30.05,ENE,62,0.0,1.0,71,0.00,,CLR,0.00,VWS V14.01,2013-08-10 14:17:00,
2013-08-10 09:20:00,70.1,60.3,30.05,ENE,58,0.0,1.0,71,0.00,,CLR,0.00,VWS V14.01,2013-08-10 14:20:00,
2013-08-10 09:22:00,70.0,59.4,30.05,NE,50,0.0,1.0,69,0.00,,CLR,0.00,VWS V14.01,2013-08-10 14:22:00,
2013-08-10 09:25:00,70.0,60.2,30.05,ENE,59,0.0,1.0,71,0.00,,CLR,0.00,VWS V14.01,2013-08-10 14:25:00,
2013-08-10 09:28:00,69.9,60.5,30.05,NNE,32,4.0,4.0,72,0.00,,CLR,0.00,VWS V14.01,2013-08-10 14:28:00,
2013-08-10 09:30:00,69.9,60.9,30.05,ENE,63,0.0,5.0,73,0.00,,CLR,0.00,VWS V14.01,2013-08-10 14:30:00,
2013-08-10 09:33:00,69.7,61.4,30.05,NE,39,0.0,6.0,75,0.00,,CLR,0.00,VWS V14.01,2013-08-10 14:33:00,
2013-08-10 09:35:00,69.6,61.3,30.05,ENE,60,3.0,6.0,75,0.00,,CLR,0.00,VWS V14.01,2013-08-10 14:35:00,
2013-08-10 09:38:00,69.5,62.0,30.06,ESE,115,0.0,6.0,77,0.00,,CLR,0.00,VWS V14.01,2013-08-10 14:38:00,
2013-08-10 09:40:00,69.6,62.4,30.06,NE,40,0.0,5.0,78,0.00,,CLR,0.00,VWS V14.01,2013-08-10 14:40:00,
2013-08-10 09:43:00,70.0,62.5,30.06,ENE,66,0.0,0.0,77,0.00,,CLR,0.00,VWS V14.01,2013-08-10 14:43:00,
2013-08-10 09:45:00,70.1,62.6,30.06,NE,50,4.0,5.0,77,0.00,,CLR,0.00,VWS V14.01,2013-08-10 14:45:00,
2013-08-10 09:48:00,70.1,62.2,30.06,NE,47,0.0,6.0,76,0.00,,CLR,0.00,VWS V14.01,2013-08-10 14:48:00,
2013-08-10 09:50:00,70.0,62.5,30.06,NE,56,0.0,6.0,77,0.00,,CLR,0.00,VWS V14.01,2013-08-10 14:50:00,
2013-08-10 09:53:00,70.1,62.6,30.05,NE,53,0.0,4.0,77,0.00,,CLR,0.00,VWS V14.01,2013-08-10 14:53:00,
2013-08-10 09:55:00,70.0,62.1,30.06,ENE,69,0.0,1.0,76,0.00,,CLR,0.00,VWS V14.01,2013-08-10 14:55:00,
2013-08-10 09:58:00,69.9,62.4,30.06,East,88,5.0,6.0,77,0.00,,CLR,0.00,VWS V14.01,2013-08-10 14:58:00,
2013-08-10 10:00:00,69.9,62.4,30.06,NE,34,5.0,6.0,77,0.00,,CLR,0.00,VWS V14.01,2013-08-10 15:00:00,
2013-08-10 10:03:00,69.8,62.6,30.06,NE,54,0.0,5.0,78,0.00,,FEW020,0.00,VWS V14.01,2013-08-10 15:03:00,
2013-08-10 10:05:00,69.9,63.1,30.06,NE,45,0.0,4.0,79,0.00,,CLR,0.00,VWS V14.01,2013-08-10 15:05:00,
2013-08-10 10:08:00,70.2,63.0,30.06,NE,53,0.0,6.0,78,0.00,,FEW020,0.00,VWS V14.01,2013-08-10 15:08:00,
2013-08-10 10:10:00,70.2,63.4,30.06,NE,44,0.0,6.0,79,0.00,,CLR,0.00,VWS V14.01,2013-08-10 15:10:00,
2013-08-10 10:13:00,70.4,63.2,30.06,NE,53,0.0,6.0,78,0.00,,FEW020,0.00,VWS V14.01,2013-08-10 15:13:00,
2013-08-10 10:15:00,70.4,63.2,30.06,NNE,21,0.0,6.0,78,0.00,,CLR,0.00,VWS V14.01,2013-08-10 15:15:00,
2013-08-10 10:18:00,70.6,63.4,30.06,ENE,60,0.0,6.0,78,0.00,,FEW020,0.00,VWS V14.01,2013-08-10 15:18:00,
2013-08-10 10:20:00,70.6,63.4,30.06,NE,50,0.0,6.0,78,0.00,,CLR,0.00,VWS V14.01,2013-08-10 15:20:00,
2013-08-10 10:23:00,70.3,63.5,30.06,East,86,3.0,7.0,79,0.00,,FEW020,0.00,VWS V14.01,2013-08-10 15:23:00,
2013-08-10 10:25:00,70.2,63.4,30.06,ENE,78,0.0,7.0,79,0.00,,CLR,0.00,VWS V14.01,2013-08-10 15:25:00,
2013-08-10 10:28:00,70.0,63.5,30.06,East,94,0.0,1.0,80,0.00,,FEW020,0.00,VWS V14.01,2013-08-10 15:28:00,
2013-08-10 10:30:00,70.0,63.9,30.06,ENE,65,0.0,7.0,81,0.00,,CLR,0.00,VWS V14.01,2013-08-10 15:30:00,
2013-08-10 10:33:00,69.9,64.2,30.06,NE,40,0.0,6.0,82,0.00,,FEW020,0.00,VWS V14.01,2013-08-10 15:33:00,
2013-08-10 10:35:00,69.9,64.2,30.06,ENE,66,5.0,6.0,82,0.00,,CLR,0.00,VWS V14.01,2013-08-10 15:35:00,
2013-08-10 10:39:00,69.9,64.2,30.06,ENE,62,0.0,7.0,82,0.00,,FEW020,0.00,VWS V14.01,2013-08-10 15:39:00,
2013-08-10 10:40:00,69.9,64.2,30.06,East,81,6.0,7.0,82,0.00,,CLR,0.00,VWS V14.01,2013-08-10 15:40:00,
2013-08-10 10:44:00,70.0,64.6,30.07,ENE,70,4.0,7.0,83,0.00,,FEW020,0.00,VWS V14.01,2013-08-10 15:44:00,
2013-08-10 10:45:00,70.0,64.6,30.07,ENE,74,0.0,7.0,83,0.00,,CLR,0.00,VWS V14.01,2013-08-10 15:45:00,
2013-08-10 10:49:00,70.2,64.8,30.07,ENE,65,0.0,6.0,83,0.00,,FEW020,0.00,VWS V14.01,2013-08-10 15:49:00,
2013-08-10 10:50:00,70.2,64.8,30.07,NE,38,0.0,6.0,83,0.00,,CLR,0.00,VWS V14.01,2013-08-10 15:50:00,
2013-08-10 10:54:00,70.3,64.6,30.07,ENE,74,5.0,6.0,82,0.00,,FEW020,0.00,VWS V14.01,2013-08-10 15:54:00,
2013-08-10 10:55:00,70.2,64.4,30.07,ENE,65,4.0,6.0,82,0.00,,CLR,0.00,VWS V14.01,2013-08-10 15:55:00,
2013-08-10 10:59:00,69.7,64.3,30.07,ENE,78,0.0,6.0,83,0.00,,FEW020,0.00,VWS V14.01,2013-08-10 15:59:00,
2013-08-10 11:00:00,69.6,64.2,30.07,ENE,78,0.0,6.0,83,0.00,,CLR,0.00,VWS V14.01,2013-08-10 16:00:00,
2013-08-10 11:04:00,69.5,64.5,30.07,ENE,74,3.0,5.0,84,0.00,,BKN065,0.00,VWS V14.01,2013-08-10 16:04:00,
2013-08-10 11:05:00,69.5,64.5,30.07,ENE,68,3.0,5.0,84,0.00,,CLR,0.00,VWS V14.01,2013-08-10 16:05:00,
2013-08-10 11:09:00,69.2,64.5,30.07,ENE,77,0.0,5.0,85,0.00,,BKN065,0.00,VWS V14.01,2013-08-10 16:09:00,
2013-08-10 11:10:00,69.2,64.5,30.07,ENE,77,0.0,5.0,85,0.00,,CLR,0.00,VWS V14.01,2013-08-10 16:10:00,
2013-08-10 11:14:00,69.2,64.2,30.07,NE,53,0.0,5.0,84,0.00,,BKN065,0.00,VWS V14.01,2013-08-10 16:14:00,
2013-08-10 11:15:00,69.2,64.2,30.07,NE,49,1.0,5.0,84,0.00,,CLR,0.00,VWS V14.01,2013-08-10 16:15:00,
2013-08-10 11:19:00,69.0,64.3,30.07,East,85,0.0,1.0,85,0.00,,BKN065,0.00,VWS V14.01,2013-08-10 16:19:00,
2013-08-10 11:20:00,69.0,64.3,30.07,ENE,76,0.0,1.0,85,0.00,,CLR,0.00,VWS V14.01,2013-08-10 16:20:00,
2013-08-10 11:24:00,68.7,63.7,30.07,East,96,5.0,7.0,84,0.00,,BKN065,0.00,VWS V14.01,2013-08-10 16:24:00,
2013-08-10 11:25:00,68.7,63.7,30.07,East,96,5.0,7.0,84,0.00,,CLR,0.00,VWS V14.01,2013-08-10 16:25:00,
2013-08-10 11:29:00,68.8,63.4,30.07,East,98,6.0,8.0,83,0.00,,BKN065,0.00,VWS V14.01,2013-08-10 16:29:00,
2013-08-10 11:30:00,68.8,63.4,30.07,East,98,6.0,8.0,83,0.00,,CLR,0.00,VWS V14.01,2013-08-10 16:30:00,
2013-08-10 11:35:00,69.0,62.9,30.07,ENE,71,0.0,5.0,81,0.00,,CLR,0.00,VWS V14.01,2013-08-10 16:35:00,
2013-08-10 11:40:00,69.2,62.4,30.07,ENE,76,1.0,6.0,79,0.00,,CLR,0.00,VWS V14.01,2013-08-10 16:40:00,
2013-08-10 11:45:00,69.5,62.3,30.07,ENE,72,4.0,7.0,78,0.00,,CLR,0.00,VWS V14.01,2013-08-10 16:45:00,
2013-08-10 11:50:00,69.3,62.2,30.07,East,84,0.0,7.0,78,0.00,,CLR,0.00,VWS V14.01,2013-08-10 16:50:00,
2013-08-10 11:55:00,69.2,62.1,30.08,NE,46,0.0,1.0,78,0.00,,CLR,0.00,VWS V14.01,2013-08-10 16:55:00,
2013-08-10 12:00:00,68.9,61.4,30.08,NE,56,3.0,7.0,77,0.00,,CLR,0.00,VWS V14.01,2013-08-10 17:00:00,
2013-08-10 12:05:00,68.7,61.6,30.08,ENE,74,0.0,6.0,78,0.00,,CLR,0.00,VWS V14.01,2013-08-10 17:05:00,
2013-08-10 12:10:00,68.5,61.7,30.08,ENE,73,0.0,7.0,79,0.00,,CLR,0.00,VWS V14.01,2013-08-10 17:10:00,
2013-08-10 12:15:00,68.5,61.7,30.08,ENE,61,0.0,7.0,79,0.00,,CLR,0.00,VWS V14.01,2013-08-10 17:15:00,
2013-08-10 12:20:00,68.6,61.8,30.08,East,82,5.0,5.0,79,0.00,,CLR,0.00,VWS V14.01,2013-08-10 17:20:00,
2013-08-10 12:25:00,68.6,61.1,30.07,ENE,74,3.0,8.0,77,0.00,,CLR,0.00,VWS V14.01,2013-08-10 17:25:00,
2013-08-10 12:30:00,68.5,61.0,30.07,East,81,0.0,5.0,77,0.00,,CLR,0.00,VWS V14.01,2013-08-10 17:30:00,
2013-08-10 12:35:00,68.5,61.4,30.07,ENE,78,0.0,5.0,78,0.00,,CLR,0.00,VWS V14.01,2013-08-10 17:35:00,
2013-08-10 12:40:00,68.5,61.7,30.07,East,80,0.0,5.0,79,0.00,,CLR,0.00,VWS V14.01,2013-08-10 17:40:00,
2013-08-10 12:45:00,68.6,61.5,30.07,East,84,0.0,5.0,78,0.00,,CLR,0.00,VWS V14.01,2013-08-10 17:45:00,
2013-08-10 12:50:00,68.9,62.8,30.07,East,82,0.0,3.0,81,0.00,,CLR,0.00,VWS V14.01,2013-08-10 17:50:00,
2013-08-10 12:55:00,68.9,63.2,30.07,ESE,105,0.0,2.0,82,0.00,,CLR,0.00,VWS V14.01,2013-08-10 17:55:00,
2013-08-10 13:00:00,68.7,63.0,30.07,East,93,0.0,1.0,82,0.00,,CLR,0.00,VWS V14.01,2013-08-10 18:00:00,
2013-08-10 13:05:00,68.6,62.9,30.07,East,87,0.0,1.0,82,0.00,,CLR,0.00,VWS V14.01,2013-08-10 18:05:00,
2013-08-10 13:10:00,68.6,62.9,30.07,East,97,0.0,1.0,82,0.00,,CLR,0.00,VWS V14.01,2013-08-10 18:10:00,
2013-08-10 13:15:00,68.7,63.0,30.07,ESE,113,0.0,0.0,82,0.00,,CLR,0.00,VWS V14.01,2013-08-10 18:15:00,
2013-08-10 13:20:00,68.9,62.8,30.06,ENE,63,0.0,1.0,81,0.00,,CLR,0.00,VWS V14.01,2013-08-10 18:20:00,
2013-08-10 13:25:00,69.3,63.2,30.07,ESE,114,0.0,0.0,81,0.00,,CLR,0.00,VWS V14.01,2013-08-10 18:25:00,
2013-08-10 13:30:00,69.6,62.8,30.07,ESE,107,0.0,1.0,79,0.00,,CLR,0.00,VWS V14.01,2013-08-10 18:30:00,
2013-08-10 13:35:00,69.9,62.7,30.07,East,84,3.0,6.0,78,0.00,,CLR,0.00,VWS V14.01,2013-08-10 18:35:00,
2013-08-10 13:40:00,70.5,63.7,30.07,ESE,113,0.0,1.0,79,0.00,,CLR,0.00,VWS V14.01,2013-08-10 18:40:00,
2013-08-10 13:45:00,70.8,62.9,30.07,ESE,102,0.0,5.0,76,0.00,,CLR,0.00,VWS V14.01,2013-08-10 18:45:00,
2013-08-10 13:50:00,70.5,61.8,30.06,East,81,0.0,8.0,74,0.00,,CLR,0.00,VWS V14.01,2013-08-10 18:50:00,
2013-08-10 13:55:00,70.8,62.5,30.07,ESE,103,0.0,8.0,75,0.00,,CLR,0.00,VWS V14.01,2013-08-10 18:55:00,
2013-08-10 14:00:00,70.8,62.5,30.07,East,81,3.0,6.0,75,0.00,,CLR,0.00,VWS V14.01,2013-08-10 19:00:00,
2013-08-10 14:05:00,70.4,61.3,30.07,ENE,76,5.0,7.0,73,0.00,,CLR,0.00,VWS V14.01,2013-08-10 19:05:00,
2013-08-10 14:10:00,69.9,61.6,30.07,ENE,68,0.0,6.0,75,0.00,,CLR,0.00,VWS V14.01,2013-08-10 19:10:00,
2013-08-10 14:15:00,69.9,61.6,30.07,ENE,77,0.0,5.0,75,0.00,,CLR,0.00,VWS V14.01,2013-08-10 19:15:00,
2013-08-10 14:20:00,69.9,61.6,30.07,ENE,69,0.0,1.0,75,0.00,,CLR,0.00,VWS V14.01,2013-08-10 19:20:00,
2013-08-10 14:25:00,69.5,61.2,30.08,ENE,76,0.0,6.0,75,0.00,,CLR,0.00,VWS V14.01,2013-08-10 19:25:00,
2013-08-10 14:30:00,69.5,61.6,30.08,NNE,27,0.0,1.0,76,0.00,,CLR,0.00,VWS V14.01,2013-08-10 19:30:00,
2013-08-10 14:35:00,69.9,62.0,30.07,East,90,0.0,6.0,76,0.00,,CLR,0.00,VWS V14.01,2013-08-10 19:35:00,
2013-08-10 14:40:00,70.2,61.5,30.08,ENE,69,0.0,5.0,74,0.00,,CLR,0.00,VWS V14.01,2013-08-10 19:40:00,
2013-08-10 14:45:00,70.5,61.4,30.07,NE,40,0.0,6.0,73,0.00,,CLR,0.00,VWS V14.01,2013-08-10 19:45:00,
2013-08-10 14:50:00,70.4,60.6,30.07,ENE,73,0.0,1.0,71,0.00,,CLR,0.00,VWS V14.01,2013-08-10 19:50:00,
2013-08-10 14:55:00,70.2,60.4,30.07,East,87,6.0,7.0,71,0.00,,CLR,0.00,VWS V14.01,2013-08-10 19:55:00,
2013-08-10 15:00:00,69.9,60.5,30.07,ENE,78,3.0,3.0,72,0.00,,CLR,0.00,VWS V14.01,2013-08-10 20:00:00,
2013-08-10 15:05:00,69.5,60.1,30.07,East,84,2.0,6.0,72,0.00,,CLR,0.00,VWS V14.01,2013-08-10 20:05:00,
2013-08-10 15:10:00,69.3,60.3,30.07,East,92,0.0,5.0,73,0.00,,CLR,0.00,VWS V14.01,2013-08-10 20:10:00,
2013-08-10 15:15:00,69.2,60.2,30.07,ENE,65,0.0,1.0,73,0.00,,CLR,0.00,VWS V14.01,2013-08-10 20:15:00,
2013-08-10 15:20:00,69.0,60.0,30.06,ENE,78,4.0,6.0,73,0.00,,CLR,0.00,VWS V14.01,2013-08-10 20:20:00,
2013-08-10 15:25:00,69.1,60.5,30.06,East,88,0.0,2.0,74,0.00,,CLR,0.00,VWS V14.01,2013-08-10 20:25:00,
2013-08-10 15:30:00,69.2,59.8,30.06,East,98,0.0,5.0,72,0.00,,CLR,0.00,VWS V14.01,2013-08-10 20:30:00,
2013-08-10 15:35:00,69.1,59.3,30.06,East,81,0.0,6.0,71,0.00,,CLR,0.00,VWS V14.01,2013-08-10 20:35:00,
2013-08-10 15:40:00,69.2,59.8,30.06,East,79,0.0,1.0,72,0.00,,CLR,0.00,VWS V14.01,2013-08-10 20:40:00,
2013-08-10 15:45:00,69.2,59.8,30.06,East,90,0.0,1.0,72,0.00,,CLR,0.00,VWS V14.01,2013-08-10 20:45:00,
2013-08-10 15:50:00,69.1,59.3,30.06,East,88,0.0,0.0,71,0.00,,CLR,0.00,VWS V14.01,2013-08-10 20:50:00,
2013-08-10 15:55:00,69.1,59.7,30.06,East,86,0.0,0.0,72,0.00,,CLR,0.00,VWS V14.01,2013-08-10 20:55:00,
2013-08-10 16:00:00,69.3,59.9,30.06,East,95,0.0,1.0,72,0.00,,CLR,0.00,VWS V14.01,2013-08-10 21:00:00,
2013-08-10 16:05:00,69.5,60.1,30.06,ESE,111,0.0,1.0,72,0.00,,CLR,0.00,VWS V14.01,2013-08-10 21:05:00,
2013-08-10 16:10:00,69.8,60.0,30.05,ESE,102,0.0,0.0,71,0.00,,CLR,0.00,VWS V14.01,2013-08-10 21:10:00,
2013-08-10 16:15:00,69.9,58.9,30.05,ENE,76,3.0,3.0,68,0.00,,CLR,0.00,VWS V14.01,2013-08-10 21:15:00,
2013-08-10 16:20:00,69.9,59.7,30.05,East,93,0.0,3.0,70,0.00,,CLR,0.00,VWS V14.01,2013-08-10 21:20:00,
2013-08-10 16:25:00,69.6,59.0,30.05,East,83,2.0,5.0,69,0.00,,CLR,0.00,VWS V14.01,2013-08-10 21:25:00,
2013-08-10 16:30:00,69.4,58.4,30.05,East,96,0.0,5.0,68,0.00,,CLR,0.00,VWS V14.01,2013-08-10 21:30:00,
2013-08-10 16:35:00,69.4,58.4,30.05,East,88,0.0,1.0,68,0.00,,CLR,0.00,VWS V14.01,2013-08-10 21:35:00,
2013-08-10 16:40:00,69.6,59.4,30.05,East,100,0.0,1.0,70,0.00,,CLR,0.00,VWS V14.01,2013-08-10 21:40:00,
2013-08-10 16:45:00,69.7,59.5,30.05,East,82,0.0,2.0,70,0.00,,CLR,0.00,VWS V14.01,2013-08-10 21:45:00,
2013-08-10 16:50:00,69.6,58.6,30.05,East,90,2.0,5.0,68,0.00,,CLR,0.00,VWS V14.01,2013-08-10 21:50:00,
2013-08-10 16:55:00,69.5,58.5,30.05,ENE,76,0.0,5.0,68,0.00,,CLR,0.00,VWS V14.01,2013-08-10 21:55:00,
2013-08-10 17:00:00,69.7,58.7,30.05,East,90,0.0,0.0,68,0.00,,CLR,0.00,VWS V14.01,2013-08-10 22:00:00,
2013-08-10 17:05:00,69.9,58.9,30.05,East,88,0.0,1.0,68,0.00,,CLR,0.00,VWS V14.01,2013-08-10 22:05:00,
2013-08-10 17:10:00,70.3,59.2,30.05,ESE,105,0.0,3.0,68,0.00,,CLR,0.00,VWS V14.01,2013-08-10 22:10:00,
2013-08-10 17:15:00,70.8,59.3,30.05,ESE,106,0.0,0.0,67,0.00,,CLR,0.00,VWS V14.01,2013-08-10 22:15:00,
2013-08-10 17:20:00,71.1,59.6,30.05,ESE,120,0.0,2.0,67,0.00,,CLR,0.00,VWS V14.01,2013-08-10 22:20:00,
2013-08-10 17:25:00,70.9,59.8,30.05,East,97,0.0,0.0,68,0.00,,CLR,0.00,VWS V14.01,2013-08-10 22:25:00,
2013-08-10 17:30:00,70.9,60.2,30.05,East,96,0.0,1.0,69,0.00,,CLR,0.00,VWS V14.01,2013-08-10 22:30:00,
2013-08-10 17:35:00,70.7,60.0,30.05,East,99,0.0,0.0,69,0.00,,CLR,0.00,VWS V14.01,2013-08-10 22:35:00,
2013-08-10 17:40:00,70.6,59.5,30.04,East,100,0.0,0.0,68,0.00,,CLR,0.00,VWS V14.01,2013-08-10 22:40:00,
2013-08-10 17:45:00,70.6,59.5,30.05,East,99,0.0,1.0,68,0.00,,CLR,0.00,VWS V14.01,2013-08-10 22:45:00,
2013-08-10 17:50:00,71.0,60.3,30.04,East,99,0.0,0.0,69,0.00,,CLR,0.00,VWS V14.01,2013-08-10 22:50:00,
2013-08-10 17:55:00,71.5,59.6,30.04,East,100,0.0,0.0,66,0.00,,CLR,0.00,VWS V14.01,2013-08-10 22:55:00,
2013-08-10 18:00:00,72.0,59.6,30.04,East,99,0.0,0.0,65,0.00,,CLR,0.00,VWS V14.01,2013-08-10 23:00:00,
2013-08-10 18:05:00,71.9,59.9,30.04,ESE,107,0.0,0.0,66,0.00,,CLR,0.00,VWS V14.01,2013-08-10 23:05:00,
2013-08-10 18:10:00,71.8,59.8,30.04,ESE,109,0.0,0.0,66,0.00,,CLR,0.00,VWS V14.01,2013-08-10 23:10:00,
2013-08-10 18:15:00,71.9,60.4,30.04,SE,126,0.0,1.0,67,0.00,,CLR,0.00,VWS V14.01,2013-08-10 23:15:00,
2013-08-10 18:20:00,71.9,60.4,30.04,SE,126,0.0,1.0,67,0.00,,CLR,0.00,VWS V14.01,2013-08-10 23:20:00,
2013-08-10 18:25:00,71.5,60.4,30.04,SE,127,0.0,0.0,68,0.00,,CLR,0.00,VWS V14.01,2013-08-10 23:25:00,
2013-08-10 18:30:00,71.1,60.8,30.03,SE,126,0.0,0.0,70,0.00,,CLR,0.00,VWS V14.01,2013-08-10 23:30:00,
2013-08-10 18:35:00,70.8,60.5,30.03,SE,126,0.0,0.0,70,0.00,,CLR,0.00,VWS V14.01,2013-08-10 23:35:00,
2013-08-10 18:40:00,70.6,60.3,30.03,SE,126,0.0,0.0,70,0.00,,CLR,0.00,VWS V14.01,2013-08-10 23:40:00,
2013-08-10 18:45:00,70.3,60.5,30.03,SE,126,0.0,0.0,71,0.00,,CLR,0.00,VWS V14.01,2013-08-10 23:45:00,
2013-08-10 18:50:00,70.0,60.6,30.03,SE,126,0.0,0.0,72,0.00,,CLR,0.00,VWS V14.01,2013-08-10 23:50:00,
2013-08-10 18:55:00,69.8,60.4,30.03,SE,126,0.0,0.0,72,0.00,,CLR,0.00,VWS V14.01,2013-08-10 23:55:00,
2013-08-10 19:00:00,69.9,60.9,30.04,SE,126,0.0,0.0,73,0.00,,CLR,0.00,VWS V14.01,2013-08-11 00:00:00,
2013-08-10 19:05:00,70.1,60.7,30.04,SE,126,0.0,0.0,72,0.00,,CLR,0.00,VWS V14.01,2013-08-11 00:05:00,
2013-08-10 19:10:00,70.1,60.3,30.04,SE,126,0.0,0.0,71,0.00,,CLR,0.00,VWS V14.01,2013-08-11 00:10:00,
2013-08-10 19:15:00,70.0,60.6,30.03,SE,126,0.0,0.0,72,0.00,,CLR,0.00,VWS V14.01,2013-08-11 00:15:00,
2013-08-10 19:20:00,69.8,60.8,30.03,SE,126,0.0,0.0,73,0.00,,CLR,0.00,VWS V14.01,2013-08-11 00:20:00,
2013-08-10 19:25:00,69.6,60.6,30.03,SE,126,0.0,0.0,73,0.00,,CLR,0.00,VWS V14.01,2013-08-11 00:25:00,
2013-08-10 19:30:00,69.4,60.4,30.03,SE,126,0.0,0.0,73,0.00,,CLR,0.00,VWS V14.01,2013-08-11 00:30:00,
2013-08-10 19:35:00,69.1,60.5,30.03,SE,126,0.0,0.0,74,0.00,,CLR,0.00,VWS V14.01,2013-08-11 00:35:00,
2013-08-10 19:40:00,68.8,60.6,30.03,SE,126,0.0,0.0,75,0.00,,CLR,0.00,VWS V14.01,2013-08-11 00:40:00,
2013-08-10 19:45:00,68.5,60.3,30.03,SE,126,0.0,0.0,75,0.00,,CLR,0.00,VWS V14.01,2013-08-11 00:45:00,
2013-08-10 19:50:00,68.2,60.3,30.03,SE,126,0.0,0.0,76,0.00,,CLR,0.00,VWS V14.01,2013-08-11 00:50:00,
2013-08-10 19:55:00,68.0,60.2,30.03,SE,126,0.0,0.0,76,0.00,,CLR,0.00,VWS V14.01,2013-08-11 00:55:00,
2013-08-10 20:00:00,67.9,60.1,30.03,SE,126,0.0,0.0,76,0.00,,CLR,0.00,VWS V14.01,2013-08-11 01:00:00,
2013-08-10 20:05:00,67.7,59.5,30.03,SE,126,0.0,0.0,75,0.00,,CLR,0.00,VWS V14.01,2013-08-11 01:05:00,
2013-08-10 20:10:00,67.7,59.1,30.03,SE,126,0.0,0.0,74,0.00,,CLR,0.00,VWS V14.01,2013-08-11 01:10:00,
2013-08-10 20:15:00,67.7,59.1,30.03,SE,126,0.0,0.0,74,0.00,,CLR,0.00,VWS V14.01,2013-08-11 01:15:00,
2013-08-10 20:20:00,67.7,59.1,30.03,SE,126,0.0,0.0,74,0.00,,CLR,0.00,VWS V14.01,2013-08-11 01:20:00,
2013-08-10 20:25:00,67.6,59.0,30.04,SE,126,0.0,0.0,74,0.00,,CLR,0.00,VWS V14.01,2013-08-11 01:25:00,
2013-08-10 20:30:00,67.6,59.4,30.04,SE,126,0.0,0.0,75,0.00,,CLR,0.00,VWS V14.01,2013-08-11 01:30:00,
2013-08-10 20:35:00,67.6,59.4,30.04,SE,126,0.0,0.0,75,0.00,,CLR,0.00,VWS V14.01,2013-08-11 01:35:00,
2013-08-10 20:40:00,67.5,59.3,30.04,SE,126,0.0,0.0,75,0.00,,CLR,0.00,VWS V14.01,2013-08-11 01:40:00,
2013-08-10 20:45:00,67.5,59.3,30.04,SE,126,0.0,0.0,75,0.00,,CLR,0.00,VWS V14.01,2013-08-11 01:45:00,
2013-08-10 20:50:00,67.4,58.8,30.04,SE,126,0.0,0.0,74,0.00,,CLR,0.00,VWS V14.01,2013-08-11 01:50:00,
2013-08-10 20:55:00,67.2,59.0,30.04,SE,126,0.0,0.0,75,0.00,,CLR,0.00,VWS V14.01,2013-08-11 01:55:00,
2013-08-10 21:00:00,67.0,58.8,30.05,SE,126,0.0,0.0,75,0.00,,CLR,0.00,VWS V14.01,2013-08-11 02:00:00,
2013-08-10 21:05:00,66.9,59.1,30.05,SE,126,0.0,0.0,76,0.00,,CLR,0.00,VWS V14.01,2013-08-11 02:05:00,
2013-08-10 21:10:00,66.7,59.3,30.05,SE,126,0.0,0.0,77,0.00,,CLR,0.00,VWS V14.01,2013-08-11 02:10:00,
2013-08-10 21:15:00,66.5,59.1,30.06,SE,126,0.0,0.0,77,0.00,,CLR,0.00,VWS V14.01,2013-08-11 02:15:00,
2013-08-10 21:20:00,66.1,59.4,30.06,SE,126,0.0,0.0,79,0.00,,CLR,0.00,VWS V14.01,2013-08-11 02:20:00,
2013-08-10 21:25:00,65.9,59.2,30.06,SE,126,0.0,0.0,79,0.00,,CLR,0.00,VWS V14.01,2013-08-11 02:25:00,
2013-08-10 21:30:00,65.8,59.1,30.05,SE,126,0.0,0.0,79,0.00,,CLR,0.00,VWS V14.01,2013-08-11 02:30:00,
2013-08-10 21:34:00,65.6,59.6,30.05,SE,126,0.0,0.0,81,0.00,,BKN065,0.00,VWS V14.01,2013-08-11 02:34:00,
2013-08-10 21:35:00,65.6,59.6,30.05,SE,126,0.0,0.0,81,0.00,,CLR,0.00,VWS V14.01,2013-08-11 02:35:00,
2013-08-10 21:39:00,65.3,59.3,30.05,SE,126,0.0,0.0,81,0.00,,BKN065,0.00,VWS V14.01,2013-08-11 02:39:00,
2013-08-10 21:40:00,65.3,59.3,30.05,SE,126,0.0,0.0,81,0.00,,CLR,0.00,VWS V14.01,2013-08-11 02:40:00,
2013-08-10 21:44:00,65.1,59.5,30.05,SE,126,0.0,0.0,82,0.00,,BKN065,0.00,VWS V14.01,2013-08-11 02:44:00,
2013-08-10 21:45:00,65.1,59.5,30.05,SE,126,0.0,0.0,82,0.00,,CLR,0.00,VWS V14.01,2013-08-11 02:45:00,
2013-08-10 21:49:00,64.9,59.6,30.05,SE,126,0.0,0.0,83,0.00,,BKN065,0.00,VWS V14.01,2013-08-11 02:49:00,
2013-08-10 21:50:00,64.9,59.6,30.05,SE,126,0.0,0.0,83,0.00,,CLR,0.00,VWS V14.01,2013-08-11 02:50:00,
2013-08-10 21:55:00,64.6,59.7,30.05,SE,126,0.0,0.0,84,0.00,,BKN065,0.00,VWS V14.01,2013-08-11 02:55:00,
2013-08-10 22:00:00,64.3,59.4,30.05,SE,126,0.0,0.0,84,0.00,,BKN065,0.00,VWS V14.01,2013-08-11 03:00:00,
2013-08-10 22:05:00,63.9,59.6,30.05,SE,126,0.0,0.0,86,0.00,,CLR,0.00,VWS V14.01,2013-08-11 03:05:00,
2013-08-10 22:10:00,63.5,59.6,30.05,SE,126,0.0,0.0,87,0.00,,CLR,0.00,VWS V14.01,2013-08-11 03:10:00,
2013-08-10 22:15:00,63.2,59.6,30.05,SE,126,0.0,0.0,88,0.00,,CLR,0.00,VWS V14.01,2013-08-11 03:15:00,
2013-08-10 22:20:00,63.0,59.4,30.05,SE,126,0.0,0.0,88,0.00,,CLR,0.00,VWS V14.01,2013-08-11 03:20:00,
2013-08-10 22:21:00,62.9,59.3,30.05,SE,126,0.0,0.0,88,0.00,,CLR,0.00,VWS V14.01,2013-08-11 03:21:00,
2013-08-10 22:25:00,62.9,59.6,30.05,SE,126,0.0,0.0,89,0.00,,CLR,0.00,VWS V14.01,2013-08-11 03:25:00,
2013-08-10 22:26:00,62.8,59.5,30.05,SE,126,0.0,0.0,89,0.00,,CLR,0.00,VWS V14.01,2013-08-11 03:26:00,
2013-08-10 22:30:00,62.7,59.4,30.05,SE,126,0.0,0.0,89,0.00,,CLR,0.00,VWS V14.01,2013-08-11 03:30:00,
2013-08-10 22:31:00,62.7,59.4,30.05,SE,126,0.0,0.0,89,0.00,,CLR,0.00,VWS V14.01,2013-08-11 03:31:00,
2013-08-10 22:35:00,62.6,59.6,30.05,SE,126,0.0,0.0,90,0.00,,CLR,0.00,VWS V14.01,2013-08-11 03:35:00,
2013-08-10 22:36:00,62.6,59.6,30.05,SE,126,0.0,0.0,90,0.00,,CLR,0.00,VWS V14.01,2013-08-11 03:36:00,
2013-08-10 22:40:00,62.6,59.6,30.05,SE,126,0.0,0.0,90,0.00,,CLR,0.00,VWS V14.01,2013-08-11 03:40:00,
2013-08-10 22:41:00,62.6,59.6,30.05,SE,126,0.0,0.0,90,0.00,,CLR,0.00,VWS V14.01,2013-08-11 03:41:00,
2013-08-10 22:45:00,62.6,59.6,30.05,SE,126,0.0,0.0,90,0.00,,CLR,0.00,VWS V14.01,2013-08-11 03:45:00,
2013-08-10 22:46:00,62.5,59.5,30.05,SE,126,0.0,0.0,90,0.00,,CLR,0.00,VWS V14.01,2013-08-11 03:46:00,
2013-08-10 22:50:00,62.6,59.6,30.05,SE,126,0.0,0.0,90,0.00,,CLR,0.00,VWS V14.01,2013-08-11 03:50:00,
2013-08-10 22:54:00,62.5,59.5,30.05,SE,126,0.0,0.0,90,0.00,,CLR,0.00,VWS V14.01,2013-08-11 03:54:00,
2013-08-10 22:55:00,62.5,59.5,30.05,SE,126,0.0,0.0,90,0.00,,CLR,0.00,VWS V14.01,2013-08-11 03:55:00,
2013-08-10 22:59:00,62.3,59.3,30.05,SE,126,0.0,0.0,90,0.00,,CLR,0.00,VWS V14.01,2013-08-11 03:59:00,
2013-08-10 23:00:00,62.3,59.3,30.05,SE,126,0.0,0.0,90,0.00,,CLR,0.00,VWS V14.01,2013-08-11 04:00:00,
2013-08-10 23:01:00,62.2,59.2,30.05,SE,126,0.0,0.0,90,0.00,,FEW085,0.00,VWS V14.01,2013-08-11 04:01:00,
2013-08-10 23:02:00,62.1,59.1,30.05,SE,126,0.0,0.0,90,0.00,,FEW085,0.00,VWS V14.01,2013-08-11 04:02:00,
2013-08-10 23:04:00,62.0,59.0,30.05,SE,126,0.0,0.0,90,0.00,,FEW085,0.00,VWS V14.01,2013-08-11 04:04:00,
2013-08-10 23:05:00,62.0,59.0,30.05,SE,126,0.0,0.0,90,0.00,,CLR,0.00,VWS V14.01,2013-08-11 04:05:00,
2013-08-10 23:06:00,61.9,58.9,30.05,SE,126,0.0,0.0,90,0.00,,FEW085,0.00,VWS V14.01,2013-08-11 04:06:00,
2013-08-10 23:07:00,61.8,59.5,30.05,SE,126,0.0,0.0,92,0.00,,FEW085,0.00,VWS V14.01,2013-08-11 04:07:00,
2013-08-10 23:10:00,61.8,58.8,30.05,SE,126,0.0,0.0,90,0.00,,CLR,0.00,VWS V14.01,2013-08-11 04:10:00,
2013-08-10 23:12:00,61.7,58.7,30.05,SE,126,0.0,0.0,90,0.00,,FEW085,0.00,VWS V14.01,2013-08-11 04:12:00,
2013-08-10 23:15:00,61.6,58.6,30.05,SE,126,0.0,0.0,90,0.00,,CLR,0.00,VWS V14.01,2013-08-11 04:15:00,
2013-08-10 23:17:00,61.5,58.8,30.05,SE,126,0.0,0.0,91,0.00,,FEW085,0.00,VWS V14.01,2013-08-11 04:17:00,
2013-08-10 23:20:00,61.4,58.8,30.04,SE,126,0.0,0.0,91,0.00,,CLR,0.00,VWS V14.01,2013-08-11 04:20:00,
2013-08-10 23:22:00,61.4,58.8,30.04,SE,126,0.0,0.0,91,0.00,,FEW085,0.00,VWS V14.01,2013-08-11 04:22:00,
2013-08-10 23:25:00,61.3,58.7,30.04,SE,126,0.0,0.0,91,0.00,,CLR,0.00,VWS V14.01,2013-08-11 04:25:00,
2013-08-10 23:27:00,61.3,58.7,30.04,SE,126,0.0,0.0,91,0.00,,FEW085,0.00,VWS V14.01,2013-08-11 04:27:00,
2013-08-10 23:30:00,61.2,58.6,30.04,SE,126,0.0,0.0,91,0.00,,CLR,0.00,VWS V14.01,2013-08-11 04:30:00,
2013-08-10 23:32:00,61.1,58.5,30.05,SE,126,0.0,0.0,91,0.00,,FEW085,0.00,VWS V14.01,2013-08-11 04:32:00,
2013-08-10 23:35:00,61.1,58.5,30.04,SE,126,0.0,0.0,91,0.00,,CLR,0.00,VWS V14.01,2013-08-11 04:35:00,
2013-08-10 23:37:00,61.0,58.4,30.04,SSW,204,0.0,0.0,91,0.00,,FEW085,0.00,VWS V14.01,2013-08-11 04:37:00,
2013-08-10 23:40:00,60.9,58.3,30.04,SSW,208,0.0,0.0,91,0.00,,CLR,0.00,VWS V14.01,2013-08-11 04:40:00,
2013-08-10 23:42:00,60.7,58.4,30.04,SSW,209,0.0,0.0,92,0.00,,FEW085,0.00,VWS V14.01,2013-08-11 04:42:00,
2013-08-10 23:45:00,60.7,58.4,30.04,SSW,209,0.0,0.0,92,0.00,,CLR,0.00,VWS V14.01,2013-08-11 04:45:00,
2013-08-10 23:47:00,60.6,58.3,30.04,SSW,209,0.0,0.0,92,0.00,,FEW085,0.00,VWS V14.01,2013-08-11 04:47:00,
2013-08-10 23:50:00,60.6,58.3,30.04,SSW,209,0.0,0.0,92,0.00,,CLR,0.00,VWS V14.01,2013-08-11 04:50:00,
2013-08-10 23:53:00,60.5,58.2,30.04,SSW,209,0.0,0.0,92,0.00,,FEW085,0.00,VWS V14.01,2013-08-11 04:53:00,
2013-08-10 23:55:00,60.6,58.6,30.04,SSW,208,0.0,0.0,93,0.00,,CLR,0.00,VWS V14.01,2013-08-11 04:55:00,
2013-08-10 23:58:00,60.5,58.5,30.04,SSW,209,0.0,0.0,93,0.00,,FEW085,0.00,VWS V14.01,2013-08-11 04:58:00,